User: anonymous   Login
Location: Pegasus Observatory
(35.6569°N, 82.5850°W)
Time: 21:34:10
(UTC-04:00)
Language:

JY1SAT - Orbit

View from above orbital plane
View from above orbital plane
View from above satellite
View from above satellite

Ground track
Ground track

The orbit data is extracted from the following two-line orbital elements,

1 43803U 18099AX  20093.64450467 -.00000078  00000-0 -18616-5 0  9999
2 43803  97.7090 166.5297 0016666  85.3250 274.9874 14.95453223 72600
Epoch (UTC): 02 April 2020 15:28:05
Eccentricity: 0.0016666
inclination: 97.7090°
perigee height: 569 km
apogee height: 592 km
right ascension of ascending node: 166.5297°
argument of perigee: 85.3250°
revolutions per day: 14.95453223
mean anomaly at epoch: 274.9874°
orbit number at epoch: 7260

The dashed part of the orbit path shows where the satellite is in the earth's shadow,  

DLR